Location: Adrasan
(36.3319°N, 30.4314°E)
Time: 07:34:49
(UTC+00:00)

USA 307 - Pass Details

Date: 09 December 2023
Orbit: 495 x 502 km, 54.0° (Epoch: 10 March)

Event Time Altitude Azimuth Distance (km) Brightness Sun altitude
Rises 15:12:57 0° 308° (NW) 2,577 6.7 -6.2°
Reaches altitude 10° 15:15:13 10° 302° (WNW) 1,690 5.8 -6.7°
Maximum altitude 15:18:53 44° 230° (SW) 686 4.0 -7.3°
Drops below altitude 10° 15:22:26 10° 158° (SSE) 1,628 5.2 -8.0°
Sets 15:24:35 0° 151° (SSE) 2,470 6.1 -8.4°
